Location: Sternwarte ZA, Rosenfeld-Brittheim
(48.2889°N, 8.6789°E)
Time: 16:06:45
(UTC+02:00)

ISS - Pass Details

Date: 20 May 2018
Orbit: 402 x 407 km, 51.6° (Epoch: 23 May)

Event Time Altitude Azimuth Distance (km) Brightness Sun altitude
Exits shadow 00:06:17 15° 71° (ENE) 1,180 -1.5 -19.7°
Drops below altitude 10° 00:06:58 10° 70° (ENE) 1,460 -1.0 -19.8°
Sets 00:09:03 0° 68° (ENE) 2,321 0.1 -19.9°
